Previsão horária em Cerlevo

Hoje, 31 Julho, Sábado

Tempo Temperatura Precipitação Vento Pressão Humidade
00:00 +19°C° 0 mm 2 m/s 742 mmHg 98%
01:00 +18°C° 0 mm 2 m/s 742 mmHg 97%
02:00 +18°C° 0 mm 2 m/s 742 mmHg 97%
03:00 +18°C° 0 mm 2 m/s 742 mmHg 97%
04:00 +18°C° 0 mm 2 m/s 742 mmHg 96%
05:00 +19°C° 0 mm 3 m/s 742 mmHg 96%
06:00 +19°C° 0 mm 3 m/s 742 mmHg 95%
07:00 +20°C° 0 mm 4 m/s 742 mmHg 85%
08:00 +22°C° 0 mm 4 m/s 743 mmHg 76%
09:00 +23°C° 0 mm 5 m/s 743 mmHg 66%
10:00 +25°C° 0 mm 5 m/s 743 mmHg 58%
11:00 +26°C° 0 mm 6 m/s 743 mmHg 51%
12:00 +27°C° 0 mm 7 m/s 744 mmHg 43%
13:00 +28°C° 0 mm 6 m/s 744 mmHg 41%
14:00 +28°C° 0 mm 6 m/s 744 mmHg 39%
15:00 +29°C° 0 mm 6 m/s 744 mmHg 36%
16:00 +28°C° 0 mm 5 m/s 744 mmHg 40%
17:00 +28°C° 0 mm 4 m/s 744 mmHg 43%
18:00 +28°C° 0 mm 4 m/s 744 mmHg 47%
19:00 +26°C° 0 mm 3 m/s 744 mmHg 52%
20:00 +24°C° 0 mm 3 m/s 745 mmHg 56%
21:00 +23°C° 0 mm 2 m/s 745 mmHg 61%
22:00 +21°C° 0 mm 2 m/s 745 mmHg 64%
23:00 +20°C° 0 mm 2 m/s 745 mmHg 67%

Amanhã, 1 Agosto, Domingo

Tempo Temperatura Precipitação Vento Pressão Humidade
00:00 +20°C° 0 mm 2 m/s 745 mmHg 70%
01:00 +19°C° 0 mm 2 m/s 746 mmHg 71%
02:00 +19°C° 0 mm 2 m/s 746 mmHg 73%
03:00 +18°C° 0 mm 2 m/s 746 mmHg 74%
04:00 +18°C° 0 mm 2 m/s 747 mmHg 74%
05:00 +18°C° 0 mm 2 m/s 747 mmHg 74%
06:00 +19°C° 0 mm 2 m/s 747 mmHg 74%
07:00 +21°C° 0 mm 2 m/s 748 mmHg 66%
08:00 +24°C° 0 mm 2 m/s 748 mmHg 58%
09:00 +26°C° 0 mm 2 m/s 748 mmHg 51%
10:00 +27°C° 0 mm 3 m/s 748 mmHg 47%
11:00 +28°C° 0 mm 3 m/s 748 mmHg 43%
12:00 +29°C° 0 mm 3 m/s 748 mmHg 39%
13:00 +30°C° 0 mm 3 m/s 748 mmHg 37%
14:00 +31°C° 0 mm 3 m/s 748 mmHg 36%
15:00 +31°C° 0 mm 3 m/s 747 mmHg 34%
16:00 +31°C° 0 mm 3 m/s 747 mmHg 37%
17:00 +31°C° 0 mm 2 m/s 747 mmHg 41%
18:00 +30°C° 0 mm 2 m/s 747 mmHg 44%
19:00 +29°C° 0 mm 2 m/s 747 mmHg 46%
20:00 +27°C° 0 mm 3 m/s 747 mmHg 49%
21:00 +25°C° 0 mm 3 m/s 747 mmHg 51%
22:00 +24°C° 0 mm 3 m/s 747 mmHg 52%
23:00 +24°C° 0 mm 2 m/s 747 mmHg 52%

Depois de amanhã, 2 Agosto, Segunda-feira

Tempo Temperatura Precipitação Vento Pressão Humidade
00:00 +23°C° 0 mm 2 m/s 747 mmHg 52%
01:00 +23°C° 0 mm 2 m/s 747 mmHg 54%
02:00 +23°C° 0 mm 2 m/s 747 mmHg 56%
03:00 +21°C° 0 mm 2 m/s 747 mmHg 58%
04:00 +21°C° 0 mm 2 m/s 747 mmHg 59%
05:00 +21°C° 0 mm 2 m/s 747 mmHg 60%
06:00 +21°C° 0 mm 3 m/s 747 mmHg 61%
07:00 +24°C° 0 mm 3 m/s 747 mmHg 57%
08:00 +27°C° 0 mm 4 m/s 747 mmHg 52%
09:00 +29°C° 0 mm 4 m/s 747 mmHg 47%
10:00 +32°C° 0 mm 4 m/s 747 mmHg 42%
11:00 +34°C° 0 mm 5 m/s 746 mmHg 36%
12:00 +36°C° 0 mm 5 m/s 746 mmHg 31%
13:00 +36°C° 0 mm 5 m/s 746 mmHg 31%
14:00 +36°C° 0 mm 5 m/s 745 mmHg 31%
15:00 +36°C° 0 mm 5 m/s 745 mmHg 31%
16:00 +35°C° 0 mm 5 m/s 744 mmHg 34%
17:00 +34°C° 0 mm 4 m/s 744 mmHg 38%
18:00 +33°C° 0 mm 4 m/s 743 mmHg 41%
19:00 +29°C° 0.2 mm 4 m/s 743 mmHg 51%
20:00 +27°C° 0.2 mm 4 m/s 743 mmHg 61%
21:00 +23°C° 0.2 mm 4 m/s 743 mmHg 70%
22:00 +23°C° 0 mm 4 m/s 743 mmHg 68%
23:00 +23°C° 0 mm 4 m/s 743 mmHg 67%

3 Agosto, Terça-feira

Tempo Temperatura Precipitação Vento Pressão Humidade
00:00 +23°C° 0 mm 4 m/s 743 mmHg 65%
01:00 +23°C° 0.1 mm 4 m/s 743 mmHg 66%
02:00 +22°C° 0.1 mm 3 m/s 743 mmHg 67%
03:00 +22°C° 0.1 mm 3 m/s 742 mmHg 68%
04:00 +22°C° 0 mm 3 m/s 742 mmHg 70%
05:00 +23°C° 0 mm 2 m/s 742 mmHg 73%
06:00 +23°C° 0 mm 2 m/s 742 mmHg 75%
07:00 +24°C° 0 mm 3 m/s 742 mmHg 70%
08:00 +25°C° 0 mm 5 m/s 743 mmHg 66%
09:00 +26°C° 0 mm 6 m/s 743 mmHg 61%
10:00 +27°C° 0 mm 6 m/s 743 mmHg 59%
11:00 +27°C° 0 mm 6 m/s 743 mmHg 56%
12:00 +28°C° 0 mm 5 m/s 743 mmHg 54%
13:00 +29°C° 0 mm 6 m/s 743 mmHg 52%
14:00 +29°C° 0 mm 6 m/s 743 mmHg 49%
15:00 +30°C° 0 mm 6 m/s 743 mmHg 47%
16:00 +29°C° 0 mm 6 m/s 743 mmHg 50%
17:00 +27°C° 0 mm 6 m/s 743 mmHg 54%
18:00 +26°C° 0 mm 6 m/s 743 mmHg 57%
19:00 +23°C° 0 mm 5 m/s 744 mmHg 64%
20:00 +21°C° 0 mm 5 m/s 745 mmHg 70%
21:00 +19°C° 0 mm 4 m/s 745 mmHg 77%
22:00 +18°C° 0 mm 4 m/s 746 mmHg 81%
23:00 +17°C° 0 mm 4 m/s 746 mmHg 85%

4 Agosto, Quarta-feira

Tempo Temperatura Precipitação Vento Pressão Humidade
00:00 +16°C° 0 mm 3 m/s 746 mmHg 89%
01:00 +16°C° 0 mm 3 m/s 747 mmHg 91%
02:00 +14°C° 0 mm 3 m/s 747 mmHg 92%
03:00 +14°C° 0 mm 3 m/s 747 mmHg 94%
04:00 +14°C° 0 mm 3 m/s 747 mmHg 92%
05:00 +14°C° 0 mm 3 m/s 747 mmHg 90%
06:00 +16°C° 0 mm 3 m/s 748 mmHg 88%
07:00 +18°C° 0 mm 3 m/s 748 mmHg 78%
08:00 +20°C° 0 mm 3 m/s 748 mmHg 67%
09:00 +22°C° 0 mm 3 m/s 749 mmHg 57%
10:00 +23°C° 0 mm 4 m/s 749 mmHg 52%
11:00 +25°C° 0 mm 4 m/s 749 mmHg 47%
12:00 +26°C° 0 mm 4 m/s 749 mmHg 42%
13:00 +26°C° 0 mm 4 m/s 749 mmHg 40%
14:00 +27°C° 0 mm 4 m/s 749 mmHg 38%
15:00 +28°C° 0 mm 4 m/s 749 mmHg 36%
16:00 +27°C° 0 mm 4 m/s 749 mmHg 38%
17:00 +27°C° 0 mm 3 m/s 750 mmHg 40%
18:00 +26°C° 0 mm 3 m/s 750 mmHg 42%
19:00 +25°C° 0 mm 3 m/s 750 mmHg 46%
20:00 +22°C° 0 mm 3 m/s 750 mmHg 49%
21:00 +21°C° 0 mm 2 m/s 751 mmHg 53%
22:00 +20°C° 0 mm 2 m/s 751 mmHg 54%
23:00 +20°C° 0 mm 2 m/s 751 mmHg 56%

5 Agosto, Quinta-feira

Tempo Temperatura Precipitação Vento Pressão Humidade
00:00 +19°C° 0 mm 2 m/s 751 mmHg 58%
01:00 +20°C° 0 mm 1 m/s 751 mmHg 58%
02:00 +20°C° 0 mm 1 m/s 751 mmHg 59%
03:00 +20°C° 0 mm 1 m/s 751 mmHg 59%
04:00 +20°C° 0 mm 1 m/s 751 mmHg 60%
05:00 +20°C° 0 mm 1 m/s 752 mmHg 60%
06:00 +20°C° 0 mm 1 m/s 752 mmHg 61%
07:00 +20°C° 0 mm 1 m/s 752 mmHg 60%
08:00 +21°C° 0 mm 1 m/s 752 mmHg 60%
09:00 +21°C° 0 mm 1 m/s 752 mmHg 60%
10:00 +23°C° 0 mm 1 m/s 752 mmHg 53%
11:00 +25°C° 0 mm 1 m/s 752 mmHg 47%
12:00 +26°C° 0 mm 1 m/s 752 mmHg 41%
13:00 +27°C° 0 mm 2 m/s 752 mmHg 39%
14:00 +27°C° 0 mm 2 m/s 752 mmHg 37%
15:00 +28°C° 0 mm 2 m/s 752 mmHg 35%
16:00 +27°C° 0 mm 2 m/s 751 mmHg 38%
17:00 +27°C° 0 mm 3 m/s 751 mmHg 41%
18:00 +26°C° 0 mm 3 m/s 751 mmHg 43%
19:00 +24°C° 0 mm 3 m/s 751 mmHg 48%
20:00 +21°C° 0 mm 3 m/s 751 mmHg 52%
21:00 +19°C° 0 mm 3 m/s 751 mmHg 57%
22:00 +19°C° 0 mm 3 m/s 751 mmHg 57%
23:00 +19°C° 0 mm 3 m/s 751 mmHg 57%
Mostrar mais

Necessitamos do seu Consentimento

A Meteoprog e os seus Fornecedores de Serviços podem armazenar e aceder a dados pessoais como cookies, identificadores do dispositivo ou outras tecnologias semelhantes existentes no seu dispositivo e processar estes dados para personalizar conteúdos e anúncios, assim como funcionalidades nas redes sociais e análise de tráfego.

  • Armazenar e/ou aceder a informações no seu dispositivo

    Os cookies, identificadores do dispositivo ou outras informações podem ser armazenados ou acedidos no seu dispositivo, para os fins acima indicados.

  • Anúncios e conteúdos personalizados, medição de anúncios e conteúdos, dados sobre o público-alvo e desenvolvimento de produtos

    Os anúncios e os conteúdos podem ser personalizados com base num perfil. Podem ser adicionados dados adicionais para uma maior personalização dos anúncios e dos conteúdos. A eficácia dos anúncios e dos conteúdos pode ser medida. Podem ser obtidas informações sobre o público que visualizou os anúncios e os conteúdos. Estes dados podem ser usados para desenvolver ou melhorar sistemas, softwares ou a experiência do utilizador.

Ao clicar em "Eu concordo”, permitirá o uso de cookies, identificadores do dispositivo e web beacons mencionados ou outras tecnologias semelhantes. As configurações do navegador do seu dispositivo podem ser alteradas.

Para certos fins, podem ser invocados interesses legítimos ao invés de consentimento. Pode ler mais informação sobre este assunto na nossa Política de Privacidade e Cookies.